,,PressureMeas_1m,,PRMeasQMR101_1,,RHStat155_1m_1,,SRMeasQMS101R_1m,,TAStat155_1m_1,,GenWind_1,,GenWind_1,
2019-09-07, 00:00:07,VALID,918.438,VALID,0.0,VALID,96.379,VALID,0.017,VALID,21.926,INVALID,360.0,VALID,0.0,
2019-09-07, 00:01:07,VALID,918.435,VALID,0.0,VALID,96.167,VALID,0.007,VALID,21.922,INVALID,360.0,VALID,0.0,
2019-09-07, 00:02:07,VALID,918.435,VALID,0.0,VALID,96.278,VALID,0.001,VALID,21.925,INVALID,360.0,VALID,0.0,
2019-09-07, 00:03:07,VALID,918.422,VALID,0.0,VALID,96.363,VALID,0.014,VALID,21.929,INVALID,360.0,VALID,0.0,
2019-09-07, 00:04:07,VALID,918.397,VALID,0.0,VALID,96.322,VALID,0.007,VALID,21.932,INVALID,360.0,VALID,0.0,
2019-09-07, 00:05:07,VALID,918.391,VALID,0.0,VALID,96.088,VALID,0.011,VALID,21.934,INVALID,360.0,VALID,0.0,
2019-09-07, 00:06:07,VALID,918.377,VALID,0.0,VALID,95.94,VALID,-0.003,VALID,21.918,INVALID,360.0,VALID,0.0,
2019-09-07, 00:07:07,VALID,918.338,VALID,0.0,VALID,95.972,VALID,0.009,VALID,21.899,INVALID,360.0,VALID,0.0,
2019-09-07, 00:08:07,VALID,918.318,VALID,0.0,VALID,96.127,VALID,0.017,VALID,21.876,INVALID,360.0,VALID,0.0,
2019-09-07, 00:09:07,VALID,918.282,VALID,0.0,VALID,96.294,VALID,0.01,VALID,21.841,INVALID,360.0,VALID,0.0,
2019-09-07, 00:10:07,VALID,918.24,VALID,0.0,VALID,96.509,VALID,-0.002,VALID,21.806,INVALID,360.0,VALID,0.0,
2019-09-07, 00:11:07,VALID,918.212,VALID,0.0,VALID,96.592,VALID,0.001,VALID,21.774,INVALID,360.0,VALID,0.0,
2019-09-07, 00:12:07,VALID,918.243,VALID,0.0,VALID,96.657,VALID,-0.0,VALID,21.716,INVALID,360.0,VALID,0.0,
2019-09-07, 00:13:07,VALID,918.246,VALID,0.0,VALID,96.936,VALID,-0.005,VALID,21.671,INVALID,360.0,VALID,0.0,
2019-09-07, 00:14:07,VALID,918.262,VALID,0.0,VALID,97.159,VALID,0.001,VALID,21.644,INVALID,360.0,VALID,0.0,
2019-09-07, 00:15:07,VALID,918.267,VALID,0.0,VALID,97.282,VALID,-0.015,VALID,21.647,INVALID,360.0,VALID,0.0,
2019-09-07, 00:16:07,VALID,918.276,VALID,0.0,VALID,97.254,VALID,-0.009,VALID,21.646,INVALID,360.0,VALID,0.0,
2019-09-07, 00:17:07,VALID,918.278,VALID,0.0,VALID,97.208,VALID,-0.004,VALID,21.643,INVALID,360.0,VALID,0.0,
2019-09-07, 00:18:07,VALID,918.294,VALID,0.0,VALID,97.324,VALID,0.002,VALID,21.661,INVALID,360.0,VALID,0.0,
2019-09-07, 00:19:07,VALID,918.269,VALID,0.0,VALID,97.364,VALID,0.0,VALID,21.687,INVALID,360.0,VALID,0.0,
2019-09-07, 00:20:07,VALID,918.252,VALID,0.0,VALID,97.327,VALID,-0.004,VALID,21.693,INVALID,360.0,VALID,0.0,
2019-09-07, 00:21:07,VALID,918.243,VALID,0.0,VALID,97.191,VALID,-0.014,VALID,21.676,INVALID,360.0,VALID,0.0,
2019-09-07, 00:22:07,VALID,918.213,VALID,0.0,VALID,97.283,VALID,-0.005,VALID,21.656,INVALID,360.0,VALID,0.0,
2019-09-07, 00:23:07,VALID,918.227,VALID,0.0,VALID,97.422,VALID,-0.008,VALID,21.617,INVALID,360.0,VALID,0.0,
2019-09-07, 00:24:07,VALID,918.222,VALID,0.0,VALID,97.699,VALID,-0.006,VALID,21.62,INVALID,360.0,VALID,0.0,
2019-09-07, 00:25:07,VALID,918.21,VALID,0.0,VALID,97.686,VALID,0.001,VALID,21.601,INVALID,360.0,VALID,0.0,
2019-09-07, 00:26:07,VALID,918.197,VALID,0.0,VALID,97.756,VALID,0.0,VALID,21.606,INVALID,360.0,VALID,0.0,
2019-09-07, 00:27:07,VALID,918.193,VALID,0.0,VALID,97.815,VALID,-0.015,VALID,21.612,INVALID,360.0,VALID,0.0,
2019-09-07, 00:28:07,VALID,918.169,VALID,0.0,VALID,97.85,VALID,-0.005,VALID,21.605,INVALID,360.0,VALID,0.0,
2019-09-07, 00:29:07,VALID,918.153,VALID,0.0,VALID,97.902,VALID,-0.011,VALID,21.585,INVALID,360.0,VALID,0.0,
2019-09-07, 00:30:07,VALID,918.135,VALID,0.0,VALID,97.956,VALID,-0.003,VALID,21.566,INVALID,360.0,VALID,0.0,
2019-09-07, 00:31:07,VALID,918.101,VALID,0.0,VALID,98.047,VALID,-0.003,VALID,21.545,INVALID,360.0,VALID,0.0,
2019-09-07, 00:32:07,VALID,918.098,VALID,0.0,VALID,98.085,VALID,-0.005,VALID,21.515,INVALID,360.0,VALID,0.0,
2019-09-07, 00:33:07,VALID,918.078,VALID,0.0,VALID,98.226,VALID,-0.004,VALID,21.521,INVALID,360.0,VALID,0.0,
2019-09-07, 00:34:07,VALID,918.055,VALID,0.0,VALID,98.264,VALID,0.002,VALID,21.508,INVALID,360.0,VALID,0.0,
2019-09-07, 00:35:07,VALID,918.035,VALID,0.0,VALID,98.292,VALID,-0.045,VALID,21.501,INVALID,360.0,VALID,0.0,
2019-09-07, 00:36:07,VALID,917.997,VALID,0.0,VALID,98.247,VALID,-0.045,VALID,21.488,INVALID,360.0,VALID,0.0,
2019-09-07, 00:37:07,VALID,917.975,VALID,0.0,VALID,98.214,VALID,-0.049,VALID,21.483,INVALID,360.0,VALID,0.0,
2019-09-07, 00:38:07,VALID,917.947,VALID,0.0,VALID,98.217,VALID,-0.056,VALID,21.478,INVALID,360.0,VALID,0.0,
2019-09-07, 00:39:07,VALID,917.946,VALID,0.0,VALID,98.256,VALID,-0.053,VALID,21.487,INVALID,360.0,VALID,0.0,
2019-09-07, 00:40:07,VALID,917.944,VALID,0.0,VALID,98.234,VALID,-0.057,VALID,21.476,INVALID,360.0,VALID,0.0,
2019-09-07, 00:41:07,VALID,917.93,VALID,0.0,VALID,98.203,VALID,-0.043,VALID,21.464,INVALID,360.0,VALID,0.0,
2019-09-07, 00:42:07,VALID,917.955,VALID,0.0,VALID,98.235,VALID,-0.029,VALID,21.471,INVALID,360.0,VALID,0.0,
2019-09-07, 00:43:07,VALID,917.936,VALID,0.0,VALID,98.198,VALID,-0.053,VALID,21.472,INVALID,360.0,VALID,0.0,
2019-09-07, 00:44:07,VALID,917.931,VALID,0.0,VALID,98.164,VALID,-0.052,VALID,21.47,INVALID,360.0,VALID,0.0,
2019-09-07, 00:45:07,VALID,917.904,VALID,0.0,VALID,98.081,VALID,-0.041,VALID,21.452,INVALID,360.0,VALID,0.0,
2019-09-07, 00:46:07,VALID,917.87,VALID,0.0,VALID,98.037,VALID,-0.044,VALID,21.427,INVALID,360.0,VALID,0.0,
2019-09-07, 00:47:07,VALID,917.858,VALID,0.0,VALID,97.923,VALID,-0.033,VALID,21.376,INVALID,360.0,VALID,0.0,
2019-09-07, 00:48:07,VALID,917.839,VALID,0.0,VALID,97.889,VALID,-0.039,VALID,21.33,INVALID,360.0,VALID,0.0,
2019-09-07, 00:49:07,VALID,917.822,VALID,0.0,VALID,97.971,VALID,-0.023,VALID,21.303,INVALID,360.0,VALID,0.0,
2019-09-07, 00:50:07,VALID,917.831,VALID,0.0,VALID,98.06,VALID,-0.018,VALID,21.281,INVALID,360.0,VALID,0.0,
2019-09-07, 00:51:07,VALID,917.849,VALID,0.0,VALID,98.16,VALID,-0.018,VALID,21.275,INVALID,360.0,VALID,0.0,
2019-09-07, 00:52:07,VALID,917.841,VALID,0.0,VALID,98.245,VALID,-0.018,VALID,21.284,INVALID,360.0,VALID,0.0,
2019-09-07, 00:53:07,VALID,917.869,VALID,0.0,VALID,98.256,VALID,0.011,VALID,21.293,INVALID,360.0,VALID,0.0,
2019-09-07, 00:54:07,VALID,917.857,VALID,0.0,VALID,98.293,VALID,0.028,VALID,21.339,INVALID,360.0,VALID,0.0,
2019-09-07, 00:55:07,VALID,917.852,VALID,0.0,VALID,98.148,VALID,0.001,VALID,21.363,INVALID,360.0,VALID,0.0,
2019-09-07, 00:56:07,VALID,917.813,VALID,0.0,VALID,98.023,VALID,0.019,VALID,21.391,INVALID,360.0,VALID,0.0,
2019-09-07, 00:57:07,VALID,917.798,VALID,0.0,VALID,97.891,VALID,0.016,VALID,21.403,INVALID,360.0,VALID,0.0,
2019-09-07, 00:58:07,VALID,917.789,VALID,0.0,VALID,97.835,VALID,0.016,VALID,21.406,INVALID,360.0,VALID,0.0,
2019-09-07, 00:59:07,VALID,917.758,VALID,0.0,VALID,97.858,VALID,0.014,VALID,21.428,INVALID,360.0,VALID,0.0,
2019-09-07, 01:00:07,VALID,917.787,VALID,0.0,VALID,97.868,VALID,0.001,VALID,21.448,INVALID,360.0,VALID,0.0,
2019-09-07, 01:01:07,VALID,917.779,VALID,0.0,VALID,97.852,VALID,0.038,VALID,21.473,INVALID,360.0,VALID,0.0,
2019-09-07, 01:02:07,VALID,917.781,VALID,0.0,VALID,97.873,VALID,0.031,VALID,21.483,INVALID,360.0,VALID,0.0,
2019-09-07, 01:03:07,VALID,917.799,VALID,0.0,VALID,98.038,VALID,0.029,VALID,21.512,INVALID,360.0,VALID,0.0,
2019-09-07, 01:04:07,VALID,917.797,VALID,0.0,VALID,98.079,VALID,0.018,VALID,21.556,INVALID,360.0,VALID,0.0,
2019-09-07, 01:05:07,VALID,917.8,VALID,0.0,VALID,97.922,VALID,-0.013,VALID,21.545,INVALID,360.0,VALID,0.0,
2019-09-07, 01:06:07,VALID,917.783,VALID,0.0,VALID,97.912,VALID,-0.021,VALID,21.546,INVALID,360.0,VALID,0.0,
2019-09-07, 01:07:07,VALID,917.765,VALID,0.0,VALID,97.956,VALID,-0.015,VALID,21.547,INVALID,360.0,VALID,0.0,
2019-09-07, 01:08:07,VALID,917.756,VALID,0.0,VALID,98.02,VALID,-0.02,VALID,21.535,INVALID,360.0,VALID,0.0,
2019-09-07, 01:09:07,VALID,917.741,VALID,0.0,VALID,98.075,VALID,-0.037,VALID,21.545,INVALID,360.0,VALID,0.0,
2019-09-07, 01:10:07,VALID,917.717,VALID,0.0,VALID,98.076,VALID,-0.045,VALID,21.528,INVALID,360.0,VALID,0.0,
2019-09-07, 01:11:07,VALID,917.706,VALID,0.0,VALID,98.091,VALID,-0.016,VALID,21.522,INVALID,360.0,VALID,0.0,
2019-09-07, 01:12:07,VALID,917.704,VALID,0.0,VALID,98.123,VALID,-0.028,VALID,21.487,INVALID,360.0,VALID,0.0,
2019-09-07, 01:13:06,VALID,917.682,VALID,0.0,VALID,98.239,VALID,-0.028,VALID,21.459,INVALID,360.0,VALID,0.0,
2019-09-07, 01:14:06,VALID,917.685,VALID,0.0,VALID,98.361,VALID,-0.004,VALID,21.442,INVALID,360.0,VALID,0.0,
2019-09-07, 01:15:06,VALID,917.689,VALID,0.0,VALID,98.484,VALID,-0.005,VALID,21.427,INVALID,360.0,VALID,0.0,
2019-09-07, 01:16:06,VALID,917.688,VALID,0.0,VALID,98.397,VALID,-0.011,VALID,21.368,INVALID,360.0,VALID,0.0,
2019-09-07, 01:17:06,VALID,917.673,VALID,0.0,VALID,98.461,VALID,-0.021,VALID,21.373,INVALID,360.0,VALID,0.0,
2019-09-07, 01:18:06,VALID,917.674,VALID,0.0,VALID,98.51,VALID,-0.026,VALID,21.379,INVALID,360.0,VALID,0.0,
2019-09-07, 01:19:06,VALID,917.662,VALID,0.0,VALID,98.531,VALID,-0.005,VALID,21.39,INVALID,360.0,VALID,0.0,
2019-09-07, 01:20:06,VALID,917.662,VALID,0.0,VALID,98.552,VALID,-0.017,VALID,21.418,INVALID,360.0,VALID,0.0,
2019-09-07, 01:21:06,VALID,917.635,VALID,0.0,VALID,98.556,VALID,-0.029,VALID,21.444,VALID,5.0,VALID,0.0,
2019-09-07, 01:22:06,VALID,917.621,VALID,0.0,VALID,98.559,VALID,-0.032,VALID,21.471,INVALID,360.0,VALID,0.0,
2019-09-07, 01:23:06,VALID,917.59,VALID,0.0,VALID,98.418,VALID,-0.039,VALID,21.442,INVALID,360.0,VALID,0.0,
2019-09-07, 01:24:06,VALID,917.586,VALID,0.0,VALID,98.183,VALID,-0.02,VALID,21.378,INVALID,360.0,VALID,0.0,
2019-09-07, 01:25:06,VALID,917.567,VALID,0.0,VALID,98.059,VALID,-0.032,VALID,21.323,INVALID,360.0,VALID,0.0,
2019-09-07, 01:26:06,VALID,917.56,VALID,0.0,VALID,98.001,VALID,-0.035,VALID,21.274,INVALID,360.0,VALID,0.0,
2019-09-07, 01:27:06,VALID,917.55,VALID,0.0,VALID,98.256,VALID,-0.027,VALID,21.291,INVALID,360.0,VALID,0.0,
2019-09-07, 01:28:06,VALID,917.547,VALID,0.0,VALID,98.238,VALID,-0.036,VALID,21.276,INVALID,360.0,VALID,0.0,
2019-09-07, 01:29:06,VALID,917.553,VALID,0.0,VALID,98.252,VALID,-0.017,VALID,21.267,INVALID,360.0,VALID,0.0,
2019-09-07, 01:30:06,VALID,917.536,VALID,0.0,VALID,98.339,VALID,-0.008,VALID,21.287,INVALID,360.0,VALID,0.0,
2019-09-07, 01:31:06,VALID,917.523,VALID,0.0,VALID,98.416,VALID,-0.01,VALID,21.338,INVALID,360.0,VALID,0.0,
2019-09-07, 01:32:06,VALID,917.508,VALID,0.0,VALID,98.412,VALID,-0.035,VALID,21.381,INVALID,360.0,VALID,0.0,
2019-09-07, 01:33:06,VALID,917.488,VALID,0.0,VALID,98.288,VALID,-0.028,VALID,21.379,INVALID,360.0,VALID,0.0,
2019-09-07, 01:34:06,VALID,917.471,VALID,0.0,VALID,98.231,VALID,-0.02,VALID,21.364,INVALID,360.0,VALID,0.0,
2019-09-07, 01:35:06,VALID,917.449,VALID,0.0,VALID,98.342,VALID,-0.006,VALID,21.393,INVALID,360.0,VALID,0.0,
2019-09-07, 01:36:06,VALID,917.44,VALID,0.0,VALID,98.337,VALID,-0.015,VALID,21.438,INVALID,360.0,VALID,0.0,
2019-09-07, 01:37:06,VALID,917.418,VALID,0.0,VALID,98.291,VALID,-0.005,VALID,21.462,INVALID,360.0,VALID,0.0,
2019-09-07, 01:38:06,VALID,917.406,VALID,0.0,VALID,98.018,VALID,-0.011,VALID,21.395,INVALID,360.0,VALID,0.0,
2019-09-07, 01:39:06,VALID,917.394,VALID,0.0,VALID,98.061,VALID,-0.002,VALID,21.397,INVALID,360.0,VALID,0.0,
2019-09-07, 01:40:06,VALID,917.38,VALID,0.0,VALID,98.073,VALID,-0.019,VALID,21.371,INVALID,360.0,VALID,0.0,
2019-09-07, 01:41:06,VALID,917.363,VALID,0.0,VALID,98.046,VALID,-0.023,VALID,21.358,INVALID,360.0,VALID,0.0,
2019-09-07, 01:42:06,VALID,917.371,VALID,0.0,VALID,98.161,VALID,-0.014,VALID,21.397,INVALID,360.0,VALID,0.0,
2019-09-07, 01:43:06,VALID,917.349,VALID,0.0,VALID,98.163,VALID,-0.014,VALID,21.424,INVALID,360.0,VALID,0.0,
2019-09-07, 01:44:06,VALID,917.366,VALID,0.0,VALID,98.178,VALID,0.004,VALID,21.462,INVALID,360.0,VALID,0.0,
2019-09-07, 01:45:06,VALID,917.365,VALID,0.0,VALID,98.181,VALID,-0.008,VALID,21.503,INVALID,360.0,VALID,0.0,
2019-09-07, 01:46:06,VALID,917.364,VALID,0.0,VALID,98.064,VALID,-0.0,VALID,21.516,INVALID,360.0,VALID,0.0,
2019-09-07, 01:47:06,VALID,917.348,VALID,0.0,VALID,97.999,VALID,-0.014,VALID,21.538,INVALID,360.0,VALID,0.0,
2019-09-07, 01:48:06,VALID,917.353,VALID,0.0,VALID,97.858,VALID,-0.024,VALID,21.545,INVALID,360.0,VALID,0.0,
2019-09-07, 01:49:06,VALID,917.361,VALID,0.0,VALID,97.636,VALID,-0.009,VALID,21.501,INVALID,360.0,VALID,0.0,
2019-09-07, 01:50:06,VALID,917.34,VALID,0.0,VALID,97.562,VALID,0.015,VALID,21.471,INVALID,360.0,VALID,0.0,
2019-09-07, 01:51:06,VALID,917.325,VALID,0.0,VALID,97.549,VALID,0.005,VALID,21.449,INVALID,360.0,VALID,0.0,
2019-09-07, 01:52:06,VALID,917.32,VALID,0.0,VALID,97.581,VALID,-0.01,VALID,21.441,INVALID,360.0,VALID,0.0,
2019-09-07, 01:53:06,VALID,917.307,VALID,0.0,VALID,97.61,VALID,0.031,VALID,21.438,INVALID,360.0,VALID,0.0,
2019-09-07, 01:54:06,VALID,917.307,VALID,0.0,VALID,97.739,VALID,0.016,VALID,21.472,INVALID,360.0,VALID,0.0,
2019-09-07, 01:55:06,VALID,917.297,VALID,0.0,VALID,97.81,VALID,0.021,VALID,21.5,INVALID,360.0,VALID,0.0,
2019-09-07, 01:56:06,VALID,917.286,VALID,0.0,VALID,97.593,VALID,0.014,VALID,21.445,INVALID,360.0,VALID,0.0,
2019-09-07, 01:57:06,VALID,917.273,VALID,0.0,VALID,97.448,VALID,0.03,VALID,21.407,INVALID,360.0,VALID,0.0,
2019-09-07, 01:58:06,VALID,917.293,VALID,0.0,VALID,97.592,VALID,0.034,VALID,21.411,INVALID,360.0,VALID,0.0,
2019-09-07, 01:59:06,VALID,917.267,VALID,0.0,VALID,97.62,VALID,0.035,VALID,21.404,INVALID,360.0,VALID,0.0,
2019-09-07, 02:00:06,VALID,917.266,VALID,0.0,VALID,97.707,VALID,0.016,VALID,21.417,INVALID,360.0,VALID,0.0,
2019-09-07, 02:01:06,VALID,917.257,VALID,0.0,VALID,97.739,VALID,-0.002,VALID,21.441,INVALID,360.0,VALID,0.0,
2019-09-07, 02:02:06,VALID,917.252,VALID,0.0,VALID,97.614,VALID,0.006,VALID,21.432,INVALID,360.0,VALID,0.0,
2019-09-07, 02:03:06,VALID,917.236,VALID,0.0,VALID,97.532,VALID,0.017,VALID,21.422,INVALID,360.0,VALID,0.0,
2019-09-07, 02:04:06,VALID,917.227,VALID,0.0,VALID,97.52,VALID,0.008,VALID,21.413,INVALID,360.0,VALID,0.0,
2019-09-07, 02:05:06,VALID,917.231,VALID,0.0,VALID,97.663,VALID,0.012,VALID,21.453,INVALID,360.0,VALID,0.0,
2019-09-07, 02:06:06,VALID,917.214,VALID,0.0,VALID,97.731,VALID,0.021,VALID,21.491,INVALID,360.0,VALID,0.0,
2019-09-07, 02:07:06,VALID,917.204,VALID,0.0,VALID,97.539,VALID,0.021,VALID,21.465,INVALID,360.0,VALID,0.0,
2019-09-07, 02:08:06,VALID,917.193,VALID,0.0,VALID,97.404,VALID,0.017,VALID,21.428,INVALID,360.0,VALID,0.0,
2019-09-07, 02:09:06,VALID,917.176,VALID,0.0,VALID,97.559,VALID,-0.001,VALID,21.414,INVALID,360.0,VALID,0.0,
2019-09-07, 02:10:06,VALID,917.15,VALID,0.0,VALID,97.765,VALID,0.0,VALID,21.416,INVALID,360.0,VALID,0.0,
2019-09-07, 02:11:06,VALID,917.145,VALID,0.0,VALID,97.862,VALID,-0.003,VALID,21.42,INVALID,360.0,VALID,0.0,
2019-09-07, 02:12:06,VALID,917.129,VALID,0.0,VALID,97.717,VALID,0.019,VALID,21.398,INVALID,360.0,VALID,0.0,
2019-09-07, 02:13:06,VALID,917.141,VALID,0.0,VALID,97.668,VALID,0.007,VALID,21.418,INVALID,360.0,VALID,0.0,
2019-09-07, 02:14:06,VALID,917.124,VALID,0.0,VALID,97.588,VALID,-0.004,VALID,21.42,INVALID,360.0,VALID,0.0,
2019-09-07, 02:15:06,VALID,917.107,VALID,0.0,VALID,97.56,VALID,0.005,VALID,21.425,INVALID,360.0,VALID,0.0,
2019-09-07, 02:16:06,VALID,917.096,VALID,0.0,VALID,97.613,VALID,-0.005,VALID,21.44,INVALID,360.0,VALID,0.0,
2019-09-07, 02:17:06,VALID,917.073,VALID,0.0,VALID,97.638,VALID,0.005,VALID,21.446,INVALID,360.0,VALID,0.0,
2019-09-07, 02:18:06,VALID,917.035,VALID,0.0,VALID,97.69,VALID,0.012,VALID,21.478,INVALID,360.0,VALID,0.0,
2019-09-07, 02:19:06,VALID,917.018,VALID,0.0,VALID,97.636,VALID,0.005,VALID,21.503,INVALID,360.0,VALID,0.0,
2019-09-07, 02:20:06,VALID,917.007,VALID,0.0,VALID,97.462,VALID,0.015,VALID,21.488,INVALID,360.0,VALID,0.0,
2019-09-07, 02:21:06,VALID,917.013,VALID,0.0,VALID,97.303,VALID,0.011,VALID,21.465,INVALID,360.0,VALID,0.0,
2019-09-07, 02:22:06,VALID,916.998,VALID,0.0,VALID,97.291,VALID,0.005,VALID,21.459,INVALID,360.0,VALID,0.0,
2019-09-07, 02:23:06,VALID,917.018,VALID,0.0,VALID,97.331,VALID,0.004,VALID,21.465,INVALID,360.0,VALID,0.0,
2019-09-07, 02:24:06,VALID,917.046,VALID,0.0,VALID,97.328,VALID,-0.005,VALID,21.464,INVALID,360.0,VALID,0.0,
2019-09-07, 02:25:06,VALID,917.067,VALID,0.0,VALID,97.259,VALID,0.009,VALID,21.439,INVALID,360.0,VALID,0.0,
2019-09-07, 02:26:06,VALID,917.064,VALID,0.0,VALID,97.333,VALID,0.005,VALID,21.405,INVALID,360.0,VALID,0.0,
2019-09-07, 02:27:06,VALID,917.039,VALID,0.0,VALID,97.458,VALID,-0.003,VALID,21.385,INVALID,360.0,VALID,0.0,
2019-09-07, 02:28:06,VALID,917.03,VALID,0.0,VALID,97.598,VALID,0.01,VALID,21.384,INVALID,360.0,VALID,0.0,
2019-09-07, 02:29:06,VALID,916.983,VALID,0.0,VALID,97.677,VALID,-0.012,VALID,21.397,INVALID,360.0,VALID,0.0,
2019-09-07, 02:30:06,VALID,916.944,VALID,0.0,VALID,97.629,VALID,-0.011,VALID,21.414,INVALID,360.0,VALID,0.0,
2019-09-07, 02:31:06,VALID,916.921,VALID,0.0,VALID,97.445,VALID,0.002,VALID,21.417,INVALID,360.0,VALID,0.0,
2019-09-07, 02:32:06,VALID,916.903,VALID,0.0,VALID,97.178,VALID,-0.008,VALID,21.39,INVALID,360.0,VALID,0.0,
2019-09-07, 02:33:06,VALID,916.895,VALID,0.0,VALID,97.125,VALID,0.0,VALID,21.397,INVALID,360.0,VALID,0.0,
2019-09-07, 02:34:06,VALID,916.901,VALID,0.0,VALID,97.058,VALID,-0.003,VALID,21.382,INVALID,360.0,VALID,0.0,
2019-09-07, 02:35:06,VALID,916.929,VALID,0.0,VALID,97.093,VALID,0.001,VALID,21.392,INVALID,360.0,VALID,0.0,
2019-09-07, 02:36:06,VALID,916.967,VALID,0.0,VALID,97.217,VALID,-0.006,VALID,21.391,INVALID,360.0,VALID,0.0,
2019-09-07, 02:37:06,VALID,916.975,VALID,0.0,VALID,97.359,VALID,-0.014,VALID,21.4,INVALID,360.0,VALID,0.0,
2019-09-07, 02:38:06,VALID,916.982,VALID,0.0,VALID,97.518,VALID,-0.003,VALID,21.418,INVALID,360.0,VALID,0.0,
2019-09-07, 02:39:06,VALID,916.977,VALID,0.0,VALID,97.503,VALID,0.0,VALID,21.419,INVALID,360.0,VALID,0.0,
2019-09-07, 02:40:06,VALID,916.974,VALID,0.0,VALID,97.381,VALID,0.014,VALID,21.383,INVALID,360.0,VALID,0.0,
2019-09-07, 02:41:06,VALID,916.965,VALID,0.0,VALID,97.39,VALID,0.009,VALID,21.379,INVALID,360.0,VALID,0.0,
2019-09-07, 02:42:06,VALID,916.975,VALID,0.0,VALID,97.368,VALID,-0.004,VALID,21.354,INVALID,360.0,VALID,0.0,
2019-09-07, 02:43:06,VALID,916.952,VALID,0.0,VALID,97.407,VALID,-0.015,VALID,21.335,INVALID,360.0,VALID,0.0,
2019-09-07, 02:44:06,VALID,916.959,VALID,0.0,VALID,97.504,VALID,-0.009,VALID,21.325,INVALID,360.0,VALID,0.0,
2019-09-07, 02:45:06,VALID,916.962,VALID,0.0,VALID,97.479,VALID,-0.005,VALID,21.297,INVALID,360.0,VALID,0.0,
2019-09-07, 02:46:06,VALID,916.981,VALID,0.0,VALID,97.468,VALID,0.005,VALID,21.287,INVALID,360.0,VALID,0.0,
2019-09-07, 02:47:06,VALID,916.967,VALID,0.0,VALID,97.566,VALID,0.009,VALID,21.306,INVALID,360.0,VALID,0.0,
2019-09-07, 02:48:06,VALID,916.945,VALID,0.0,VALID,97.538,VALID,0.013,VALID,21.32,INVALID,360.0,VALID,0.0,
2019-09-07, 02:49:06,VALID,916.939,VALID,0.0,VALID,97.555,VALID,0.001,VALID,21.354,INVALID,360.0,VALID,0.0,
2019-09-07, 02:50:06,VALID,916.922,VALID,0.0,VALID,97.505,VALID,-0.037,VALID,21.384,INVALID,360.0,VALID,0.0,
2019-09-07, 02:51:06,VALID,916.889,VALID,0.0,VALID,97.466,VALID,-0.033,VALID,21.412,INVALID,360.0,VALID,0.0,
2019-09-07, 02:52:06,VALID,916.887,VALID,0.0,VALID,97.412,VALID,-0.041,VALID,21.423,INVALID,360.0,VALID,0.0,
2019-09-07, 02:53:06,VALID,916.888,VALID,0.0,VALID,97.381,VALID,-0.043,VALID,21.407,INVALID,360.0,VALID,0.0,
2019-09-07, 02:54:06,VALID,916.876,VALID,0.0,VALID,97.474,VALID,-0.03,VALID,21.388,INVALID,360.0,VALID,0.0,
2019-09-07, 02:55:06,VALID,916.912,VALID,0.0,VALID,97.503,VALID,-0.036,VALID,21.359,INVALID,360.0,VALID,0.0,
2019-09-07, 02:56:06,VALID,916.926,VALID,0.0,VALID,97.528,VALID,-0.04,VALID,21.326,INVALID,360.0,VALID,0.0,
2019-09-07, 02:57:06,VALID,916.957,VALID,0.0,VALID,97.504,VALID,-0.044,VALID,21.288,INVALID,360.0,VALID,0.0,
2019-09-07, 02:58:06,VALID,916.971,VALID,0.0,VALID,97.635,VALID,-0.041,VALID,21.262,INVALID,360.0,VALID,0.0,
2019-09-07, 02:59:06,VALID,916.994,VALID,0.0,VALID,97.77,VALID,-0.046,VALID,21.247,INVALID,360.0,VALID,0.0,
2019-09-07, 03:00:06,VALID,916.983,VALID,0.0,VALID,97.836,VALID,-0.041,VALID,21.238,INVALID,360.0,VALID,0.0,
2019-09-07, 03:01:06,VALID,916.988,VALID,0.0,VALID,97.885,VALID,-0.043,VALID,21.219,INVALID,360.0,VALID,0.0,
2019-09-07, 03:02:06,VALID,916.982,VALID,0.0,VALID,97.948,VALID,-0.039,VALID,21.225,INVALID,360.0,VALID,0.0,
2019-09-07, 03:03:06,VALID,916.977,VALID,0.0,VALID,97.901,VALID,-0.046,VALID,21.204,INVALID,360.0,VALID,0.0,
2019-09-07, 03:04:06,VALID,916.977,VALID,0.0,VALID,97.916,VALID,-0.03,VALID,21.199,INVALID,360.0,VALID,0.0,
2019-09-07, 03:05:06,VALID,916.97,VALID,0.0,VALID,97.878,VALID,0.008,VALID,21.212,VALID,44.0,VALID,0.0,
2019-09-07, 03:06:06,VALID,916.972,VALID,0.0,VALID,97.816,VALID,0.015,VALID,21.225,VALID,44.0,VALID,0.0,
2019-09-07, 03:07:06,VALID,916.972,VALID,0.0,VALID,97.785,VALID,0.021,VALID,21.236,VALID,44.0,VALID,0.0,
2019-09-07, 03:08:06,VALID,916.984,VALID,0.0,VALID,97.718,VALID,0.018,VALID,21.236,INVALID,360.0,VALID,0.0,
2019-09-07, 03:09:06,VALID,916.955,VALID,0.0,VALID,97.559,VALID,0.007,VALID,21.214,INVALID,360.0,VALID,0.0,
2019-09-07, 03:10:06,VALID,916.96,VALID,0.0,VALID,97.591,VALID,0.015,VALID,21.206,INVALID,360.0,VALID,0.0,
2019-09-07, 03:11:06,VALID,916.951,VALID,0.0,VALID,97.603,VALID,0.014,VALID,21.218,INVALID,360.0,VALID,0.0,
2019-09-07, 03:12:06,VALID,916.927,VALID,0.0,VALID,97.553,VALID,0.019,VALID,21.217,INVALID,360.0,VALID,0.0,
2019-09-07, 03:13:06,VALID,916.923,VALID,0.0,VALID,97.618,VALID,0.026,VALID,21.212,INVALID,360.0,VALID,0.0,
2019-09-07, 03:14:06,VALID,916.91,VALID,0.0,VALID,97.693,VALID,0.007,VALID,21.208,INVALID,360.0,VALID,0.0,
2019-09-07, 03:15:06,VALID,916.909,VALID,0.0,VALID,97.716,VALID,-0.003,VALID,21.205,INVALID,360.0,VALID,0.0,
2019-09-07, 03:16:06,VALID,916.898,VALID,0.0,VALID,97.717,VALID,0.007,VALID,21.175,INVALID,360.0,VALID,0.0,
2019-09-07, 03:17:06,VALID,916.911,VALID,0.0,VALID,97.797,VALID,0.002,VALID,21.134,INVALID,360.0,VALID,0.0,
2019-09-07, 03:18:06,VALID,916.908,VALID,0.0,VALID,97.932,VALID,0.03,VALID,21.122,INVALID,360.0,VALID,0.0,
2019-09-07, 03:19:06,VALID,916.901,VALID,0.0,VALID,98.074,VALID,0.012,VALID,21.132,INVALID,360.0,VALID,0.0,
2019-09-07, 03:20:06,VALID,916.909,VALID,0.0,VALID,98.064,VALID,0.032,VALID,21.118,INVALID,360.0,VALID,0.0,
2019-09-07, 03:21:06,VALID,916.882,VALID,0.0,VALID,98.167,VALID,0.031,VALID,21.118,INVALID,360.0,VALID,0.0,
2019-09-07, 03:22:06,VALID,916.895,VALID,0.0,VALID,98.293,VALID,0.025,VALID,21.121,INVALID,360.0,VALID,0.0,
2019-09-07, 03:23:06,VALID,916.882,VALID,0.0,VALID,98.348,VALID,0.037,VALID,21.111,INVALID,360.0,VALID,0.0,
2019-09-07, 03:24:06,VALID,916.882,VALID,0.0,VALID,98.397,VALID,0.029,VALID,21.101,INVALID,360.0,VALID,0.0,
2019-09-07, 03:25:06,VALID,916.881,VALID,0.0,VALID,98.472,VALID,0.026,VALID,21.075,INVALID,360.0,VALID,0.0,
2019-09-07, 03:26:06,VALID,916.869,VALID,0.0,VALID,98.553,VALID,0.023,VALID,21.043,INVALID,360.0,VALID,0.0,
2019-09-07, 03:27:06,VALID,916.892,VALID,0.0,VALID,98.66,VALID,0.014,VALID,21.046,INVALID,360.0,VALID,0.0,
2019-09-07, 03:28:06,VALID,916.913,VALID,0.0,VALID,98.683,VALID,0.027,VALID,21.038,INVALID,360.0,VALID,0.0,
2019-09-07, 03:29:06,VALID,916.931,VALID,0.0,VALID,98.699,VALID,0.027,VALID,21.043,INVALID,360.0,VALID,0.0,
2019-09-07, 03:30:06,VALID,916.945,VALID,0.0,VALID,98.629,VALID,0.024,VALID,21.039,INVALID,360.0,VALID,0.0,
2019-09-07, 03:31:06,VALID,916.952,VALID,0.0,VALID,98.571,VALID,0.031,VALID,21.036,INVALID,360.0,VALID,0.0,
2019-09-07, 03:32:06,VALID,916.973,VALID,0.0,VALID,98.501,VALID,0.036,VALID,21.018,INVALID,360.0,VALID,0.0,
2019-09-07, 03:33:06,VALID,916.969,VALID,0.0,VALID,98.431,VALID,0.025,VALID,21.006,INVALID,360.0,VALID,0.0,
2019-09-07, 03:34:06,VALID,916.98,VALID,0.0,VALID,98.336,VALID,0.013,VALID,20.981,INVALID,360.0,VALID,0.0,
2019-09-07, 03:35:06,VALID,916.98,VALID,0.0,VALID,98.323,VALID,-0.018,VALID,20.981,INVALID,360.0,VALID,0.0,
2019-09-07, 03:36:06,VALID,916.97,VALID,0.0,VALID,98.362,VALID,-0.015,VALID,20.993,INVALID,360.0,VALID,0.0,
2019-09-07, 03:37:06,VALID,916.986,VALID,0.0,VALID,98.375,VALID,-0.019,VALID,21.021,INVALID,360.0,VALID,0.0,